Cloud_Cover
8 100 100 12 8 35 100 100 100 100 100 100 100 100 100 100 100 100 100 100 100 100 100 100 100 100 92 86 29 39 1 7 99 78 100 36 0 0 24 5 5 18 5 4 5
99 100 100 100 100 94 51 100 100 98 100 100 100 100 100 100 100 100 100 100 100 100 100 100 100 100 72 100 67 8 5 48 100 100 100 6 0 0 2 5 7 0 0 0 0
5 37 42 8 95 100 98 93 100 100 100 100 100 100 100 100 100 100 100 100 100 100 100 100 100 100 100 100 84 69 40 100 100 97 66 9 5 0 5 5 15 0 0 0 1
20 15 97 88 56 14 98 100 100 72 99 100 100 100 100 100 100 100 100 100 100 100 100 100 100 100 100 100 100 100 100 100 100 54 96 92 6 5 2 20 5 0 2 0 4
100 100 100 57 66 53 2 28 7 100 96 100 100 100 100 100 100 100 100 100 100 100 100 100 100 100 100 100 100 100 95 100 100 21 8 97 100 47 8 33 5 0 0 0 1
68 63 100 100 57 92 17 36 72 91 12 100 100 100 100 100 100 100 100 100 100 100 100 100 100 100 100 100 100 100 100 99 100 100 100 100 100 100 64 5 5 5 2 0 5
5 85 85 100 68 5 86 4 7 6 3 67 81 100 100 100 100 100 100 100 100 100 100 100 100 100 100 100 100 100 100 100 100 100 91 100 74 84 59 5 5 5 36 1 3
62 100 68 23 25 36 49 4 0 0 0 46 97 100 100 100 100 100 100 100 100 100 100 100 100 100 100 100 100 100 100 100 100 98 97 25 100 100 100 13 76 73 10 8 14
19 5 5 75 90 100 20 4 0 0 0 53 100 100 100 100 100 100 100 100 95 100 100 100 100 100 100 100 100 100 100 100 100 100 100 52 100 100 100 100 98 100 100 69 38
5 0 39 100 20 51 55 2 0 0 0 57 83 100 100 100 100 100 100 100 100 100 100 100 100 100 100 100 100 100 100 100 100 89 100 94 100 100 100 100 100 100 93 100 100
5 5 10 5 1 5 35 19 2 4 32 19 100 100 100 100 100 100 100 100 100 100 100 100 100 100 100 100 100 100 100 100 100 100 100 100 100 100 100 100 100 100 100 100 100
10 5 5 5 5 10 16 80 5 90 64 100 100 100 100 100 100 100 100 100 100 100 100 100 100 100 100 100 100 100 100 100 100 100 100 100 100 100 100 100 100 100 100 100 100
48 96 100 61 64 23 73 60 6 92 81 95 100 100 100 100 100 100 100 100 100 100 100 100 100 100 100 100 100 100 100 100 100 100 100 100 100 100 100 100 100 100 100 100 100
95 100 100 94 53 100 43 82 18 98 94 100 100 100 100 100 100 100 100 100 100 99 69 91 100 100 100 100 81 90 100 100 100 100 100 100 100 100 100 100 100 100 100 100 100
100 100 100 100 100 100 99 67 100 96 80 93 100 99 100 95 100 100 82 100 100 100 100 100 100 100 100 100 100 59 6 32 97 100 94 100 99 100 100 100 100 100 100 100 99
100 100 100 100 80 92 96 48 100 99 84 100 94 100 93 98 100 100 100 100 100 100 98 100 100 100 100 100 100 100 52 11 5 5 17 86 99 100 100 100 100 90 48 18 5
99 100 98 84 100 100 71 100 86 86 100 100 100 100 99 100 100 100 100 100 100 100 100 100 100 100 100 100 100 96 46 95 91 97 88 32 5 87 34 100 100 77 13 19 65
14 32 63 81 26 60 60 94 100 100 100 100 98 94 97 100 84 100 100 100 100 100 100 100 100 100 98 100 100 74 100 100 99 58 5 15 5 60 38 86 100 100 76 6 5
16 65 25 34 5 17 100 100 100 100 100 100 100 100 100 90 100 100 100 100 100 100 96 100 100 100 100 100 100 100 69 100 100 100 58 22 92 51 65 5 0 0 0 0 0
37 66 93 100 98 53 100 100 100 100 100 82 100 99 97 99 100 100 100 100 100 100 100 100 99 90 100 100 100 99 100 100 94 34 12 5 23 33 2 0 0 3 5 5 5
2 27 100 100 100 82 100 100 100 100 100 91 100 100 98 100 100 100 100 100 72 37 100 100 100 100 100 100 100 100 100 100 54 5 26 53 24 2 5 5 6 5 5 5 5
5 69 100 99 100 100 100 100 100 100 97 100 46 40 94 99 100 87 100 98 61 100 100 100 100 100 100 100 80 78 73 16 7 76 41 52 67 9 48 58 93 73 60 44 5
13 14 76 89 100 100 96 94 100 100 77 25 30 38 31 87 82 47 98 78 100 100 100 100 84 87 100 100 100 93 60 22 67 78 48 80 72 68 25 78 100 100 100 100 35
4 5 96 100 100 100 100 100 80 83 88 84 27 8 53 100 100 70 95 100 100 100 100 100 100 100 100 100 100 90 87 56 56 96 48 77 25 5 5 32 100 100 100 100 100
51 27 83 89 53 100 94 94 94 76 68 100 98 100 100 100 100 100 100 100 100 100 100 100 100 100 100 97 13 7 43 6 19 13 58 19 12 29 66 100 100 100 100 100 100
80 94 95 100 14 25 6 34 88 91 30 89 99 100 100 100 100 100 100 100 100 100 100 100 100 83 10 71 32 62 21 5 42 69 44 40 18 96 100 100 100 100 100 100 100
100 100 99 24 8 5 11 93 59 53 78 82 100 76 100 100 100 100 100 100 100 100 100 73 11 53 100 100 84 32 14 66 84 63 89 92 94 87 95 100 100 100 100 100 100